When you browse on this site, cookies collect data to enhance your experience and personalize the content and advertising you see.
Visit our Privacy Policy to learn more. By continuing to use the site, you agree to this use of cookies and data.
  • In Schweiz
  • Länderverzeichnis
  • Für 7 Tage
  • Wassertemperatur
  • Satellitenkarten
  • Wetterkarte
  • Widgets
  • user-avatar
    Anmelden

    Stündliche Wetter Tomaryne

    Heute, 22 April, Montag

    Zeit Temperatur Niederschläge Wind Luftdruck Luftfeuchtigkeit
    00:00 +10°C° 0 mm 1 m/S 763 mmHg 49%
    01:00 +9°C° 0 mm 2 m/S 763 mmHg 50%
    02:00 +9°C° 0 mm 2 m/S 763 mmHg 50%
    03:00 +9°C° 0 mm 2 m/S 764 mmHg 53%
    04:00 +8°C° 0 mm 3 m/S 764 mmHg 55%
    05:00 +8°C° 0 mm 3 m/S 764 mmHg 58%
    06:00 +9°C° 0 mm 3 m/S 764 mmHg 55%
    07:00 +10°C° 0 mm 4 m/S 764 mmHg 52%
    08:00 +12°C° 0 mm 4 m/S 764 mmHg 49%
    09:00 +13°C° 0 mm 5 m/S 764 mmHg 44%
    10:00 +14°C° 0 mm 5 m/S 765 mmHg 40%
    11:00 +15°C° 0 mm 6 m/S 765 mmHg 35%
    12:00 +15°C° 0 mm 5 m/S 765 mmHg 35%
    13:00 +15°C° 0 mm 5 m/S 765 mmHg 36%
    14:00 +15°C° 0 mm 4 m/S 765 mmHg 37%
    15:00 +15°C° 0 mm 4 m/S 765 mmHg 39%
    16:00 +16°C° 0 mm 3 m/S 765 mmHg 42%
    17:00 +15°C° 0 mm 2 m/S 765 mmHg 45%
    18:00 +14°C° 0 mm 2 m/S 765 mmHg 46%
    19:00 +14°C° 0 mm 2 m/S 765 mmHg 48%
    20:00 +13°C° 0 mm 1 m/S 766 mmHg 49%
    21:00 +12°C° 0 mm 1 m/S 766 mmHg 50%
    22:00 +11°C° 0 mm 1 m/S 766 mmHg 51%
    23:00 +10°C° 0 mm 0 m/S 766 mmHg 52%

    Morgen, 23 April, Dienstag

    Zeit Temperatur Niederschläge Wind Luftdruck Luftfeuchtigkeit
    00:00 +11°C° 0 mm 1 m/S 766 mmHg 53%
    01:00 +10°C° 0 mm 1 m/S 767 mmHg 53%
    02:00 +10°C° 0 mm 1 m/S 767 mmHg 53%
    03:00 +9°C° 0 mm 2 m/S 767 mmHg 55%
    04:00 +8°C° 0 mm 2 m/S 767 mmHg 57%
    05:00 +8°C° 0 mm 2 m/S 767 mmHg 59%
    06:00 +10°C° 0 mm 3 m/S 767 mmHg 54%
    07:00 +12°C° 0 mm 3 m/S 768 mmHg 49%
    08:00 +14°C° 0 mm 4 m/S 768 mmHg 45%
    09:00 +15°C° 0 mm 4 m/S 768 mmHg 41%
    10:00 +17°C° 0 mm 4 m/S 768 mmHg 37%
    11:00 +17°C° 0 mm 5 m/S 768 mmHg 34%
    12:00 +17°C° 0 mm 5 m/S 768 mmHg 33%
    13:00 +17°C° 0 mm 5 m/S 768 mmHg 32%
    14:00 +19°C° 0 mm 4 m/S 768 mmHg 32%
    15:00 +18°C° 0 mm 4 m/S 768 mmHg 34%
    16:00 +18°C° 0 mm 4 m/S 768 mmHg 35%
    17:00 +17°C° 0 mm 4 m/S 768 mmHg 37%
    18:00 +14°C° 0 mm 3 m/S 768 mmHg 41%
    19:00 +12°C° 0 mm 3 m/S 768 mmHg 45%
    20:00 +10°C° 0 mm 2 m/S 768 mmHg 49%
    21:00 +10°C° 0 mm 2 m/S 768 mmHg 47%
    22:00 +9°C° 0 mm 2 m/S 769 mmHg 46%
    23:00 +9°C° 0 mm 2 m/S 769 mmHg 45%

    übermorgen, 24 April, Mittwoch

    Zeit Temperatur Niederschläge Wind Luftdruck Luftfeuchtigkeit
    00:00 +9°C° 0 mm 2 m/S 769 mmHg 46%
    01:00 +8°C° 0 mm 2 m/S 769 mmHg 46%
    02:00 +8°C° 0 mm 2 m/S 769 mmHg 47%
    03:00 +8°C° 0 mm 2 m/S 769 mmHg 48%
    04:00 +7°C° 0 mm 2 m/S 769 mmHg 50%
    05:00 +7°C° 0 mm 3 m/S 769 mmHg 51%
    06:00 +9°C° 0 mm 3 m/S 769 mmHg 49%
    07:00 +11°C° 0 mm 3 m/S 769 mmHg 46%
    08:00 +14°C° 0 mm 4 m/S 769 mmHg 44%
    09:00 +15°C° 0 mm 4 m/S 769 mmHg 41%
    10:00 +17°C° 0 mm 4 m/S 769 mmHg 37%
    11:00 +19°C° 0 mm 4 m/S 769 mmHg 34%
    12:00 +19°C° 0 mm 4 m/S 769 mmHg 33%
    13:00 +20°C° 0 mm 3 m/S 769 mmHg 33%
    14:00 +20°C° 0 mm 3 m/S 769 mmHg 32%
    15:00 +20°C° 0 mm 3 m/S 769 mmHg 34%
    16:00 +19°C° 0 mm 3 m/S 768 mmHg 35%
    17:00 +19°C° 0 mm 2 m/S 768 mmHg 37%
    18:00 +17°C° 0 mm 2 m/S 768 mmHg 42%
    19:00 +15°C° 0 mm 2 m/S 769 mmHg 47%
    20:00 +13°C° 0 mm 2 m/S 769 mmHg 52%
    21:00 +12°C° 0 mm 2 m/S 769 mmHg 51%
    22:00 +12°C° 0 mm 1 m/S 769 mmHg 51%
    23:00 +11°C° 0 mm 1 m/S 769 mmHg 50%

    25 April, Donnerstag

    Zeit Temperatur Niederschläge Wind Luftdruck Luftfeuchtigkeit
    00:00 +11°C° 0 mm 1 m/S 769 mmHg 50%
    01:00 +11°C° 0 mm 1 m/S 769 mmHg 49%
    02:00 +11°C° 0 mm 1 m/S 769 mmHg 49%
    03:00 +10°C° 0 mm 1 m/S 769 mmHg 52%
    04:00 +9°C° 0 mm 2 m/S 769 mmHg 55%
    05:00 +9°C° 0 mm 2 m/S 769 mmHg 57%
    06:00 +12°C° 0 mm 2 m/S 769 mmHg 54%
    07:00 +14°C° 0 mm 2 m/S 769 mmHg 51%
    08:00 +16°C° 0 mm 2 m/S 769 mmHg 48%
    09:00 +18°C° 0 mm 2 m/S 769 mmHg 44%
    10:00 +20°C° 0 mm 3 m/S 769 mmHg 40%
    11:00 +21°C° 0 mm 3 m/S 769 mmHg 36%
    12:00 +23°C° 0 mm 2 m/S 769 mmHg 35%
    13:00 +23°C° 0 mm 2 m/S 768 mmHg 35%
    14:00 +24°C° 0 mm 2 m/S 768 mmHg 34%
    15:00 +23°C° 0 mm 2 m/S 768 mmHg 38%
    16:00 +23°C° 0 mm 1 m/S 767 mmHg 41%
    17:00 +22°C° 0 mm 1 m/S 767 mmHg 45%
    18:00 +20°C° 0 mm 1 m/S 767 mmHg 48%
    19:00 +19°C° 0 mm 1 m/S 767 mmHg 52%
    20:00 +16°C° 0 mm 1 m/S 767 mmHg 55%
    21:00 +16°C° 0 mm 1 m/S 767 mmHg 57%
    22:00 +15°C° 0 mm 1 m/S 767 mmHg 59%
    23:00 +14°C° 0 mm 1 m/S 767 mmHg 61%

    26 April, Freitag

    Zeit Temperatur Niederschläge Wind Luftdruck Luftfeuchtigkeit
    00:00 +14°C° 0 mm 2 m/S 766 mmHg 63%
    01:00 +13°C° 0 mm 2 m/S 766 mmHg 64%
    02:00 +13°C° 0 mm 2 m/S 766 mmHg 66%
    03:00 +13°C° 0 mm 2 m/S 766 mmHg 67%
    04:00 +13°C° 0 mm 2 m/S 766 mmHg 68%
    05:00 +13°C° 0 mm 2 m/S 766 mmHg 70%
    06:00 +15°C° 0 mm 2 m/S 766 mmHg 64%
    07:00 +17°C° 0 mm 2 m/S 766 mmHg 58%
    08:00 +19°C° 0 mm 2 m/S 766 mmHg 53%
    09:00 +21°C° 0 mm 3 m/S 765 mmHg 47%
    10:00 +22°C° 0 mm 3 m/S 765 mmHg 42%
    11:00 +25°C° 0 mm 4 m/S 765 mmHg 37%
    12:00 +25°C° 0 mm 3 m/S 764 mmHg 38%
    13:00 +24°C° 0 mm 3 m/S 764 mmHg 38%
    14:00 +24°C° 0 mm 3 m/S 764 mmHg 38%
    15:00 +24°C° 0 mm 3 m/S 763 mmHg 40%
    16:00 +23°C° 0 mm 2 m/S 763 mmHg 42%
    17:00 +23°C° 0 mm 2 m/S 763 mmHg 44%
    18:00 +21°C° 0 mm 2 m/S 763 mmHg 46%
    19:00 +19°C° 0 mm 2 m/S 763 mmHg 49%
    20:00 +19°C° 0 mm 1 m/S 763 mmHg 51%
    21:00 +18°C° 0 mm 1 m/S 763 mmHg 54%
    22:00 +16°C° 0 mm 1 m/S 762 mmHg 56%
    23:00 +15°C° 0 mm 1 m/S 762 mmHg 58%

    27 April, Samstag

    Zeit Temperatur Niederschläge Wind Luftdruck Luftfeuchtigkeit
    00:00 +15°C° 0 mm 1 m/S 762 mmHg 59%
    01:00 +14°C° 0 mm 1 m/S 762 mmHg 60%
    02:00 +14°C° 0 mm 1 m/S 762 mmHg 62%
    03:00 +14°C° 0 mm 1 m/S 762 mmHg 63%
    04:00 +13°C° 0 mm 1 m/S 762 mmHg 64%
    05:00 +13°C° 0 mm 1 m/S 762 mmHg 65%
    06:00 +15°C° 0 mm 2 m/S 762 mmHg 60%
    07:00 +17°C° 0 mm 2 m/S 762 mmHg 56%
    08:00 +19°C° 0 mm 2 m/S 762 mmHg 51%
    09:00 +20°C° 0 mm 3 m/S 762 mmHg 48%
    10:00 +22°C° 0 mm 3 m/S 762 mmHg 44%
    11:00 +23°C° 0 mm 4 m/S 762 mmHg 40%
    12:00 +23°C° 0 mm 4 m/S 761 mmHg 41%
    13:00 +22°C° 0 mm 4 m/S 761 mmHg 42%
    14:00 +22°C° 0 mm 4 m/S 761 mmHg 43%
    15:00 +22°C° 0 mm 3 m/S 761 mmHg 44%
    16:00 +22°C° 0 mm 3 m/S 761 mmHg 46%
    17:00 +21°C° 0 mm 2 m/S 761 mmHg 48%
    18:00 +20°C° 0 mm 2 m/S 761 mmHg 51%
    19:00 +19°C° 0 mm 2 m/S 761 mmHg 54%
    20:00 +18°C° 0 mm 2 m/S 761 mmHg 57%
    21:00 +17°C° 0 mm 2 m/S 761 mmHg 59%
    22:00 +16°C° 0 mm 1 m/S 761 mmHg 61%
    23:00 +15°C° 0 mm 1 m/S 761 mmHg 64%
    Mehr zeigen